Location: Newark
(25.0000°N, 73.5000°E)
Time: 03:27:48
(UTC+00:00)

Altair - Pass Details

Date: 06 March 2021
Orbit: 1501 x 1683 km, 47.2° (Epoch: 12 April)

Event Time Altitude Azimuth Distance (km) Brightness Sun altitude
Rises 13:39:43 0° 266° (W) 4,627 12.7 -7.4°
Reaches altitude 10° 13:43:19 10° 278° (W) 3,648 11.1 -8.2°
Maximum altitude 13:50:56 29° 335° (NNW) 2,509 8.9 -9.9°
Drops below altitude 10° 13:58:44 10° 32° (NNE) 3,717 9.2 -11.7°
Sets 14:02:28 0° 43° (NE) 4,728 9.7 -12.5°
